Regional Weather Roundup
Issued by NWS San Diego, CA

Home | Current Version | Previous Version | Text Only | Print | Product List | Glossary On
Versions: 1 2 3 4 5 6 7 8 9 10 11 12 13 14 15 16 17 18 19 20 21 22 23 24 25 26 27 28 29 30 31 32 33 34 35 36 37 38 39 40 41 42 43 44 45 46 47 48 49 50
000
ASUS46 KSGX 241111
RWRSGX

SAN DIEGO HOURLY WEATHER ROUNDUP
NATIONAL WEATHER SERVICE SAN DIEGO CA
400 AM PDT SAT JUN 24 2017

NOTE: "FAIR" INDICATES FEW OR NO CLOUDS BELOW 12,000 FEET WITH NO
SIGNIFICANT WEATHER AND/OR OBSTRUCTIONS TO VISIBILITY.

CAZ042-043-060-061-PZZ750-775-241200-

GREATER SAN DIEGO AREA

CITY           SKY/WX    TMP DP  RH WIND       PRES   REMARKS
SAN DIEGO AP   CLOUDY    65  62  90 N13       29.87F
NATIONAL CITY    N/A     64  62  91 N3        29.87S
CHULA VISTA      N/A     64  62  93 NW3       29.79F
IMPERIAL BEACH CLOUDY    65  61  87 N7        29.87R
BROWN FIELD    CLOUDY    63  61  93 VRB3      29.86S
MIRAMAR MCAS   CLOUDY    64  60  87 N13       29.86F
MONTGOMERY FLD CLOUDY    64  61  90 N13       29.86F
GILLESPIE FLD  CLOUDY    63  61  94 NW7       29.86F

$$

NORTH SAN DIEGO COUNTY

CITY           SKY/WX    TMP DP  RH WIND       PRES   REMARKS
CAMP PENDLETON CLOUDY    61  61 100 E3        29.87F FOG
OCEANSIDE AP   CLOUDY    64  62  93 NW6       29.86F
OCEANSIDE HBR    N/A     64  62  94 W2        29.89F
VISTA            N/A     62  56  81 CALM      29.85F
CARLSBAD       CLOUDY    63  61  93 NW6       29.86F
DEL MAR          N/A     63  61  94 CALM      29.88F
LA JOLLA SCRIP   N/A     62  62  99 N8        29.84F
FALLBROOK        N/A     61  61 100 CALM      29.89S
ESCONDIDO        N/A     63  60  89 W5        29.87F
SAN MARCOS       N/A     62  58  87 CALM      29.88F
POWAY            N/A     62  58  87 CALM      29.87F

$$

EAST SAN DIEGO COUNTY

CITY           SKY/WX    TMP DP  RH WIND       PRES   REMARKS
RAMONA         MOCLDY    60  60 100 W5        29.89S
SANTEE LAKES     N/A     63  60  90 NW3       29.85F
LA MESA          N/A     61  60  94 CALM      29.78F
JAMUL            N/A     60  58  92 CALM      29.85S
DESCANSO N       N/A     75  43  31 CALM      29.76S
CAMPO            N/A     61  56  83 NE8       29.89F

$$

ORANGE COUNTY AND THE LOS ANGELES BASIN

CITY           SKY/WX    TMP DP  RH WIND       PRES   REMARKS
JOHN WAYNE AP  CLOUDY    63  61  93 W5        29.88F
LAKE FOREST FR   N/A     61  57  87 W3        29.77F
HUNTINGTON BCH   N/A     63  61  94 CALM      29.89F
LOS ALAMITOS   CLOUDY    62  59  89 NW5       29.88F
FULLERTON      CLOUDY    64  60  87 W5        29.88S
LONG BEACH     CLOUDY    63  59  87 NW9       29.89F
L.A. AP        CLOUDY    63  61  93 CALM      29.88F FOG
L.A. DOWNTOWN  CLOUDY    63  60  90 CALM      29.89S

$$

THE INLAND EMPIRE

CITY           SKY/WX    TMP DP  RH WIND       PRES   REMARKS
CORONA         MOCLDY    63  59  87 W3        29.89S
CHINO          MOCLDY    65  60  84 W7        29.90S HAZE
ONTARIO        MOCLDY    67  60  78 SW6       29.89S
SAN BERNARDINO FAIR      69  58  68 CALM      29.89S
RIVERSIDE AP   PTCLDY    66  60  81 W6        29.89S
MORENO VALLEY    N/A     68  63  83 CALM      28.01F
MARCH ARB      MOCLDY    64  61  90 NW5       29.90R
HORSETHIEF CYN   N/A     65  56  73 NE5       29.86S
PERRIS           N/A     69  61  76 S1        29.88S
HEMET EAST       N/A     68  56  66 CALM      29.87F
FRENCH VALLEY  FAIR      66  57  72 CALM      29.89S
TEMECULA         N/A     64  60  88 CALM      29.93F

$$

SAN BERNARDINO AND RIVERSIDE COUNTY MOUNTAINS

CITY           SKY/WX    TMP DP  RH WIND       PRES   REMARKS
BIG BEAR AP    PTCLDY    55  30  38 CALM      30.27S
ANGELUS OAKS     N/A     72  38  28 CALM      29.66F
PINE COVE        N/A     77  34  21 N3        29.75F

$$

SOUTHERN DESERT INCLUDING THE COACHELLA VALLEY

CITY           SKY/WX    TMP DP  RH WIND       PRES   REMARKS
PALM SPRINGS   PTCLDY    90  55  30 CALM      29.71S
THOUSAND PALMS   N/A     92  53  25 NW16      29.65F
PALM DESERT      N/A     86  63  45 CALM      30.07S
THERMAL        MOCLDY    82  58  43 S6        29.65S
BLYTHE         PTCLDY    87  58  37 SW6       29.68R
IMPERIAL AP    CLEAR     80  67  64 CALM      29.66S
EL CENTRO NAS  CLEAR     80  65  59 S8        29.68S
YUMA AZ          N/A     82  59  45 S6        29.69

$$

UPPER DESERT

CITY           SKY/WX    TMP DP  RH WIND       PRES   REMARKS
VICTORVILLE AP MOCLDY    79  41  25 S8        29.95R
HESPERIA         N/A     74  40  28 CALM      29.86S
PALMDALE       MOCLDY    80  48  32 S9        29.92F
LANCASTER      PTCLDY    84  55  36 W12       29.90S
EDWARDS AFB    PTCLDY    79  49  34 SW6       29.87R
DAGGETT        PTCLDY    83  44  25 W13       29.84S
29 PALMS N     PTCLDY    93  32  11 VRB5      29.89S
NEEDLES        CLEAR     92  46  20 SE3       29.69S

$$

REGIONAL REPORTS

CITY           SKY/WX    TMP DP  RH WIND       PRES   REMARKS
SANTA BARBARA  CLOUDY    59  59 100 S5        29.87F
SANDBERG       PTCLDY    79  53  40 NW18G24   30.10S
LAS VEGAS NV   PTCLDY    92  24   8 NW6       29.83R
PHOENIX AZ     MOCLDY    92  48  22 N6        29.72R
TIJUANA        CLOUDY    63  57  82 N5        29.88S
ENSENADA NW      N/A     64  32  30 E2        29.84S

$$

OFFSHORE ISLANDS

CITY           SKY/WX    TMP DP  RH WIND       PRES   REMARKS
CATALINA ARPT  FOG       58  58 100 W9        29.91F VSB 1/2
SAN NICOLAS IS CLOUDY    57  32  38 NW18G24   29.89F

$$

MARINE AND OFFSHORE BUOY REPORTS

STATION/POSITION SKY/WX   TEMP    WIND        PRES    VSBY  SWELL
                          AIR SEA DIR/SP/G                  HT/PER/DIR
                          (F)     (DEG/KT/KT) (MB)    (MI)  (FT/S/D)
TANNER BANKS               60 62  300/ 16/ 19 1012.8          5/210/15
S CLEMENTE BASIN              64  300/ 14/ 16 1011.9          5/190/13
SAN NICOLAS IS.               60                N/A           5/290/11
SO. S. ROSA ISLA           59 60  300/ 16/ 19 1012.8          5/150/14
W. S. BARBARA CH           57 58  320/ 17/ 21 1012.6F         5/240/16
M. S. BARBARA CH           60 62  330/  8/ 12 1012.1F         3/260/ 9
S. MONICA BASIN            62 67  340/ 10/ 12 1011.6F         3/160/14
S PEDRO CHANNEL               64                N/A           2/170/14
CMP PENDLETON NS              66                N/A           3/210/15
OCEANSIDE OFFSHR              65                N/A           3/210/15
TORREY PINES OTR              67                N/A           3/210/15
SAN DIEGO BAY                 70              1011.3F
POINT LOMA SOUTH              68                N/A           3/190/15

$$




USA.gov is the U.S. government's official web portal to all federal, state and local government web resources and services.